Location: Im Fang
(46.6019°N, 7.2397°E)
Time: 14:18:17
(UTC+00:00)

Cosmos 1461 - Pass Details

Date: 08 December 2019
Orbit: 518 x 649 km, 65.0° (Epoch: 22 January)

Event Time Altitude Azimuth Distance (km) Brightness Sun altitude
Exits shadow 04:57:37 56° 301° (WNW) 697 2.9 -20.5°
Maximum altitude 04:58:25 74° 236° (WSW) 611 2.8 -20.3°
Drops below altitude 10° 05:02:47 10° 152° (SSE) 1,941 6.1 -19.6°
Sets 05:05:05 0° 150° (SSE) 2,862 7.1 -19.2°
